Regional Weather Roundup
Issued by NWS

Home | Current Version | Previous Version | Text Only | Print | Product List | Glossary Off
Versions: 1 2 3 4 5 6 7 8 9 10 11 12 13 14 15 16 17 18 19 20 21 22 23 24 25 26 27 28 29 30 31 32 33 34 35 36 37 38 39 40 41 42 43 44 45 46 47 48 49 50

000
ASUS43 KDTX 302101
RWRMI
MICHIGAN HOURLY REGIONAL WEATHER ROUNDUP
NATIONAL WEATHER SERVICE DETROIT/PONTIAC MI
500 PM EDT SAT JUL 30 2016

NOTE: "FAIR" INDICATES FEW OR NO CLOUDS BELOW 12,000 FEET WITH NO
SIGNIFICANT WEATHER AND/OR OBSTRUCTION TO VISIBILITY.

MIZ047>049-052>055-059>063-066>070-074>076-081>083-302200-
SOUTHEAST LOWER MICHIGAN

CITY           SKY/WX    TMP DP  RH WIND       PRES   REMARKS
ADRIAN         MOSUNNY   81  68  64 NE7       29.95F
ALMA           LGT RAIN  69  68  96 N9        30.03S
ANN ARBOR      PTSUNNY   77  70  79 N8G17     29.96S
BAD AXE        CLOUDY    70  61  73 NE10      30.03F
CARO           DRIZZLE   71  65  83 NE6       30.01S
DETROIT CITY   PTSUNNY   77  67  71 N6        29.96S
DETROIT        PTSUNNY   80  67  64 N7        29.95F
FLINT          CLOUDY    74  68  81 NE9       30.00F
GROSSE ILE     CLOUDY    78  70  75 NE9       29.94S
HILLSDALE      CLOUDY    77  67  71 NE3       29.96F
HOWELL         PTSUNNY   72  68  86 N7        29.99F

CITY           SKY/WX    TMP DP  RH WIND       PRES   REMARKS
JACKSON        PTSUNNY   74  69  85 NE8       29.98R
LAMBERTVILLE   MOSUNNY   80  71  76 E8        29.95S
LANSING        LGT RAIN  70  64  81 NE6       30.01R
LAPEER         CLOUDY    72  64  76 NE8       30.01S
MASON          CLOUDY    70  65  84 N10G20    30.00S
MONROE         PTSUNNY   78  71  78 E5        29.94S
PONTIAC        CLOUDY    74  66  76 NE9       29.98S
PORT HOPE        N/A     71  62  73 NE15      30.02F
PORT HURON     MOSUNNY   73  64  73 N8        29.98S
TRI CITIES     LGT RAIN  68  66  93 NE10      30.03S
MIDLAND        CLOUDY    70  61  72 NE8       30.03S
TROY           CLOUDY    76  66  70 N7        29.99F
SAGINAW HB     CLOUDY    70  64  83 N7        30.01F
$$
MIZ043>046-050>051-056>058-064>065-071>073-077>080-302200-
SOUTHWEST LOWER MICHIGAN

CITY           SKY/WX    TMP DP  RH WIND       PRES   REMARKS
BATTLE CREEK   CLOUDY    71  67  87 NE8       30.00S
BENTON HARBOR  MOSUNNY   77  67  71 VRB6      29.97S
BIG RAPIDS     CLOUDY    72  64  76 E9        30.04S
COLDWATER      CLOUDY    75  70  83 N7        29.96F
FREMONT        CLOUDY    73  67  80 E7        30.02S
HOLLAND        CLOUDY    73  64  73 E10       30.00F
GRAND RAPIDS   CLOUDY    71  64  78 E9        30.02S
IONIA          CLOUDY    68  65  88 NE9       30.01S
KALAMAZOO      CLOUDY    73  64  73 VRB6      29.99S
LUDINGTON      CLOUDY    75  64  68 SE9       30.01S
MARSHALL       CLOUDY    73  69  86 N3        29.98S
MOUNT PLEASANT CLOUDY    73  62  68 NE8       30.03S
MUSKEGON       LGT RAIN  74  65  73 NE10      30.01S
SOUTH HAVEN    CLOUDY    74  67  79 NE8       29.99R
$$
MIZ016>042-302200-
NORTHERN LOWER MICHIGAN

CITY           SKY/WX    TMP DP  RH WIND       PRES   REMARKS
ALPENA         MOSUNNY   74  52  46 SE10      30.07F
BEAVER ISLAND  SUNNY     78  53  41 E10       30.07S
BELLAIRE       CLOUDY    83  48  29 NE6       30.02S
CADILLAC       CLOUDY    73  60  62 SE8       30.04F
CHARLEVOIX     SUNNY     80  48  32 NE15G21   30.06F
FRANKFORT      MOSUNNY   79  59  50 N8G17     30.01S
GAYLORD        CLOUDY    77  47  34 SE10      30.06F
GRAYLING       PTSUNNY   80  51  36 E8        30.04S
HARBOR SPRINGS SUNNY     79  48  33 NE10G21   30.05F
HOUGHTON LAKE  CLOUDY    75  57  53 SE10      30.05S
MANISTEE       CLOUDY    76  61  59 CALM      30.01S
OSCODA         PTSUNNY   73  57  56 NE15G21   30.05F
PELLSTON       SUNNY     79  43  27 E13       30.07F
ROGERS CITY    SUNNY     75  43  32 E13G20    30.08F
TRAVERSE CITY  PTSUNNY   82  52  35 N12G17    29.99F
$$
MIZ007>008-015-302200-
EASTERN UPPER MICHIGAN

CITY           SKY/WX    TMP DP  RH WIND       PRES   REMARKS
KINROSS        SUNNY     77  52  41 E8        30.08S
MACKINAC ISLAN SUNNY     74  52  46 E7G16     30.08S
S. S. MARIE    SUNNY     79  53  40 VRB3      30.06F
$$
MIZ004>006-011>014-085-302200-
CENTRAL UPPER MICHIGAN

CITY           SKY/WX    TMP DP  RH WIND       PRES   REMARKS
MANISTIQUE     SUNNY     76  56  49 E7        30.07S
ESCANABA       SUNNY     75  55  50 S8        30.06S
MENOMINEE      SUNNY    N/A N/A N/A E12       30.07F
SAWYER-GWINN   MOSUNNY   77  48  36 E7        30.08F
$$
MIZ001>003-009>011-084-302200-
WESTERN UPPER MICHIGAN

CITY           SKY/WX    TMP DP  RH WIND       PRES   REMARKS
IRON MOUNTAIN  MOSUNNY   78  48  34 SE8G17    30.06F
HOUGHTON       SUNNY     77  56  48 E8        30.06F
COPPER HARBOR    N/A     77  50  38 VRB6      30.06S
IRONWOOD       CLOUDY    75  61  60 NE6       30.03S
$$

ABBREVIATIONS USED IN REMARKS
   TC - TEMPERATURE IN CELSIUS
  WCI - WIND CHILL INDEX
   HX - HEAT INDEX
  VSB - VISIBILITY




USA.gov is the U.S. government's official web portal to all federal, state and local government web resources and services.